Location: Bretagne
(43.8474°N, 0.4650°W)
Time: 23:37:27
(UTC+00:00)

Envisat - Pass Details

Date: 12 March 2026
Orbit: 761 x 762 km, 98.4° (Epoch: 13 April)

Event Time Altitude Azimuth Distance (km) Brightness Sun altitude
Rises 02:59:04 0° 11° (N) 3,234 6.8 -35.2°
Reaches altitude 10° 03:01:23 10° 9° (N) 2,304 5.9 -34.9°
Enters shadow 03:03:12 23° 5° (N) 1,606 4.9 -34.6°
